SCP
0 0 0 0 0 0 0 0 0 0 0 0 0 0 1 1 1 1 1 0 0 0 0 0 0 0 0 0 0 0 0 0 0 0 0 0 0 0 0 0 0 0 0
0 0 0 0 0 0 0 0 0 0 0 0 0 0 0 1 1 1 1 0 0 0 0 0 0 0 0 0 0 0 0 0 0 0 0 0 0 0 0 0 0 0 0
0 0 0 0 0 0 0 0 0 0 0 0 0 0 0 0 1 1 1 1 0 0 0 0 0 0 0 0 0 0 0 1 0 0 0 0 0 0 0 0 0 0 0
0 0 0 0 0 0 0 0 0 0 0 0 0 0 0 0 0 1 1 0 0 0 0 0 0 0 1 0 0 0 0 1 1 0 0 0 0 0 0 0 0 0 0
0 0 0 0 0 0 0 0 0 0 0 0 0 0 0 0 0 0 0 0 0 0 0 0 0 0 0 0 0 0 0 1 1 1 0 0 0 0 0 0 0 0 0
0 0 0 0 0 0 0 0 0 0 0 0 0 0 0 0 0 0 0 0 0 0 0 0 0 0 0 0 0 0 0 0 0 0 0 0 0 0 0 0 0 0 0
0 0 0 0 0 0 0 0 0 0 0 0 0 0 0 0 0 0 0 0 0 0 0 0 0 0 0 0 0 0 0 0 0 0 0 0 0 0 0 0 0 0 0
0 0 0 0 0 0 0 0 0 0 0 0 0 0 0 0 0 0 0 0 0 0 0 0 0 0 0 0 0 0 0 0 0 0 0 0 0 0 0 0 0 0 0
0 0 0 0 0 0 0 0 0 0 0 0 0 0 0 0 0 0 0 0 0 0 0 0 0 0 0 0 0 0 0 0 0 0 0 0 0 0 0 0 0 0 0
0 0 0 0 0 0 0 0 0 0 0 0 0 0 0 0 0 0 0 0 0 0 0 0 0 0 0 0 0 0 0 0 0 0 0 0 0 0 0 0 0 0 0
0 0 0 0 0 0 0 0 0 0 0 0 0 0 0 0 0 0 0 0 0 0 0 0 0 0 0 0 0 0 0 0 0 0 0 0 0 0 0 0 0 0 0
0 0 0 0 0 0 0 0 0 0 0 0 0 0 0 0 0 0 0 0 0 0 0 0 0 0 0 0 0 0 0 0 0 0 0 0 0 0 0 0 0 0 0
0 0 0 0 0 0 0 0 0 0 0 0 0 0 0 0 0 0 0 0 0 0 0 0 0 0 0 0 0 0 0 0 0 0 0 0 0 0 0 0 0 0 0
0 0 0 0 0 0 0 0 0 0 0 0 0 0 0 0 0 0 0 -0 0 0 0 0 0 0 0 0 0 0 0 0 0 0 0 0 0 0 0 0 0 0 0
0 0 0 0 0 0 0 0 0 0 0 0 0 0 0 0 0 0 0 0 0 0 0 0 0 0 0 0 0 0 0 0 0 0 0 0 0 0 0 0 0 0 0
0 0 -0 -0 -0 0 0 -0 -0 0 0 0 0 0 0 0 0 0 0 0 0 0 0 0 0 0 0 0 0 0 0 0 0 0 0 0 0 0 0 0 0 0 0
0 0 -0 -0 -0 -0 -0 -0 0 -0 0 0 0 0 0 0 0 0 0 0 0 0 0 0 0 0 0 0 0 0 0 0 0 0 0 0 0 0 0 0 0 0 0
0 -0 -0 -0 -0 -0 -0 0 0 0 0 0 0 0 0 0 0 0 0 -0 -0 0 -0 0 0 0 0 0 0 0 0 0 0 0 0 0 0 0 0 0 0 0 0
-0 -0 -0 -0 -0 -0 -0 -0 0 -0 0 0 0 0 0 0 0 0 0 0 0 0 0 0 0 0 0 0 0 0 0 0 0 0 0 0 0 0 0 0 0 0 0
-0 -0 -0 -0 -0 -0 -0 -0 0 0 0 0 0 0 0 0 0 0 0 0 0 0 0 0 0 0 0 0 0 0 0 0 0 0 0 0 0 0 0 0 0 0 0
0 0 0 0 0 0 -0 -0 -0 0 0 0 0 0 0 0 0 0 0 0 0 0 0 0 0 0 0 0 0 0 0 0 0 0 0 0 0 0 0 0 0 0 0
0 0 -0 0 0 0 -0 -0 -0 -0 0 0 0 0 0 0 0 0 0 0 0 0 0 0 0 0 0 0 0 0 0 0 0 0 0 0 0 0 0 0 0 0 0
0 0 0 0 0 0 0 -0 -0 0 0 -0 0 0 0 0 0 0 0 0 0 0 0 0 0 0 0 0 0 0 0 0 0 0 0 0 0 0 0 0 0 0 0
0 0 0 0 0 0 0 0 0 0 0 0 0 0 -0 0 0 0 0 0 0 0 0 0 0 0 0 0 0 0 0 0 0 0 0 0 0 0 0 0 0 0 0
0 0 0 0 0 0 0 0 0 0 -0 -0 -0 0 0 -0 0 0 0 0 0 0 0 0 0 0 0 0 0 0 0 0 0 0 0 0 0 0 0 0 0 0 0
0 0 0 0 0 0 0 0 0 0 0 0 0 -0 -0 -0 0 0 0 0 0 0 0 0 0 0 0 0 0 0 0 0 0 0 0 0 0 0 0 0 0 0 0
Wind_Speed_500mb
49 52 54 54 55 56 58 60 64 68 67 66 68 71 76 77 81 81 86 89 82 76 75 72 71 68 69 67 72 72 74 76 80 80 74 72 66 58 53 52 49 48 49
55 54 53 56 55 55 57 60 62 65 71 69 68 68 79 76 81 87 89 91 87 81 83 79 74 74 75 73 73 74 78 80 84 86 83 81 73 65 59 56 52 53 54
50 52 53 52 54 56 56 59 60 62 67 72 73 68 66 68 71 76 91 92 101 89 88 84 79 78 77 74 74 75 77 82 88 92 91 87 79 70 65 60 57 59 56
47 47 49 51 50 55 57 56 56 57 60 65 70 71 73 75 57 68 79 89 95 93 97 96 91 80 78 75 73 72 72 83 87 97 99 96 85 71 73 64 62 62 61
44 47 49 49 49 52 55 54 53 52 53 55 61 65 70 74 75 62 72 80 98 100 92 104 92 80 76 74 74 75 70 81 88 102 105 97 90 75 68 68 66 65 62
46 46 47 48 46 49 52 53 52 49 48 49 48 56 70 70 75 77 69 61 94 84 87 89 91 96 92 78 76 72 75 73 88 131 106 99 90 77 78 73 71 68 65
45 46 48 46 43 41 43 51 53 51 50 41 45 51 67 68 66 72 81 72 70 85 89 86 84 107 90 91 82 86 78 77 85 91 94 112 81 74 72 71 69 67 66
46 48 47 45 41 35 41 43 47 51 46 37 40 39 44 46 64 66 68 69 67 77 96 80 100 91 84 86 92 85 82 77 83 112 92 74 69 65 68 77 77 73 68
45 46 46 42 38 35 39 41 38 39 44 44 42 46 33 45 38 55 59 65 70 73 80 81 89 96 85 90 100 101 99 91 83 57 73 71 76 61 60 62 72 71 66
44 40 38 39 35 37 42 43 38 39 42 46 43 56 65 46 19 20 44 55 64 70 82 88 83 96 102 100 98 96 105 99 82 83 81 75 78 71 70 68 65 64 65
41 37 35 44 45 46 42 45 46 45 45 49 52 47 50 60 54 46 17 42 61 71 75 82 84 90 88 88 91 85 85 76 77 83 74 73 75 81 84 79 76 70 67
38 37 37 42 49 43 43 45 45 46 47 51 56 55 50 42 42 53 50 47 52 59 64 71 80 83 83 88 94 98 99 85 57 77 86 84 82 66 68 91 97 95 85
39 35 35 37 39 39 45 46 48 45 45 49 53 59 57 49 43 33 43 36 39 50 55 60 64 63 66 68 64 65 58 61 72 55 50 62 50 48 68 68 73 76 90
37 31 29 30 34 40 46 48 44 46 43 45 49 52 52 60 48 50 47 30 47 43 50 47 59 61 58 58 60 58 60 43 59 60 40 31 28 28 24 46 53 70 80
31 29 28 28 32 37 43 51 54 51 48 43 46 50 50 46 45 44 31 40 13 27 50 50 42 63 61 60 56 52 58 46 48 36 45 45 42 38 42 45 54 65 65
29 30 30 33 36 38 43 49 53 55 53 48 45 48 42 27 25 36 18 23 24 13 10 41 55 58 66 64 61 60 64 54 54 61 58 56 61 50 48 67 60 67 49
29 32 33 33 34 36 38 40 44 46 48 43 45 44 47 45 34 37 39 25 28 37 29 30 50 55 67 63 61 57 51 49 52 64 60 62 64 51 52 46 45 35 36
20 26 31 34 37 38 37 37 36 37 40 40 39 45 39 41 42 46 48 44 39 41 29 28 36 51 71 64 58 53 49 48 45 45 48 49 49 49 51 50 47 48 48
26 28 32 36 35 36 36 31 25 27 31 31 29 35 36 34 37 40 41 47 45 42 38 46 35 40 55 61 61 58 55 53 50 49 48 51 49 45 45 46 44 44 43
26 25 23 25 27 25 25 26 20 23 27 27 27 28 31 32 35 38 40 42 46 37 37 35 20 33 39 52 62 62 57 58 56 51 49 45 41 41 43 40 36 34 37
15 18 16 15 15 14 12 12 14 15 19 22 24 24 25 31 34 36 37 42 40 37 36 31 29 53 47 49 62 64 59 52 49 46 45 44 43 41 40 39 36 33 36
21 24 25 24 22 20 19 10 2 4 12 12 12 13 13 15 27 35 44 45 43 35 37 38 41 53 53 53 53 57 53 49 41 44 41 41 38 36 36 36 33 34 35
26 27 28 31 32 32 29 25 23 19 11 9 12 12 18 15 9 16 30 35 39 38 34 30 32 36 35 36 38 44 40 38 34 24 40 35 30 31 32 31 33 36 38
17 19 20 20 22 22 22 24 27 26 29 31 30 28 25 21 21 22 17 15 20 18 16 14 15 16 13 15 20 17 22 26 23 21 25 27 29 32 33 35 38 39 37
12 13 13 14 15 16 18 18 17 15 15 14 15 16 15 14 16 17 16 16 19 17 15 14 14 13 17 18 20 20 24 28 26 25 25 25 24 27 30 34 36 34 34
11 12 12 11 12 12 12 13 12 12 12 12 11 10 9 11 12 9 9 11 9 13 12 10 9 6 7 11 10 14 21 26 23 17 24 27 29 25 16 28 34 36 34
Wind_Direction_500mb
288 285 280 276 273 271 268 264 259 255 255 253 252 250 248 249 245 243 241 241 236 239 243 242 243 239 236 234 231 231 231 230 229 228 228 227 228 230 227 226 221 219 216
287 285 281 278 275 271 269 267 264 261 256 255 253 252 253 250 249 245 243 243 243 242 241 241 241 240 235 235 234 234 234 234 232 229 228 227 227 228 228 225 222 222 218
283 279 280 278 277 274 271 269 268 265 263 257 255 251 249 239 251 248 246 247 246 243 245 239 240 239 237 236 239 239 237 236 235 231 229 227 228 228 229 225 222 222 221
287 281 278 278 276 276 276 273 270 268 265 263 259 256 251 254 252 252 251 247 251 248 244 239 232 233 236 238 240 240 240 236 238 232 231 228 228 226 227 224 224 223 221
287 284 282 279 278 276 274 274 272 270 268 264 263 260 254 249 250 253 249 256 250 252 245 240 227 223 231 235 243 245 248 242 239 235 228 226 225 226 226 227 226 225 223
288 284 281 280 278 276 273 272 272 268 269 267 265 261 257 254 249 247 251 254 248 251 251 250 235 233 221 228 241 244 248 248 240 228 226 223 225 224 227 225 227 226 224
282 282 280 277 274 275 274 272 271 272 269 267 268 267 261 257 254 252 250 251 246 241 243 242 240 231 234 224 232 237 242 243 241 230 236 235 221 221 228 226 223 225 224
281 280 277 275 272 268 270 274 273 273 269 262 253 262 262 261 251 256 254 248 251 250 240 256 241 238 230 240 238 234 242 247 252 237 229 217 224 235 233 230 226 225 225
280 276 275 275 268 268 272 273 273 269 267 266 246 240 251 249 257 249 249 245 237 235 241 239 243 236 240 243 244 251 247 251 245 221 216 231 235 222 225 231 228 226 224
285 280 271 261 260 265 272 277 271 263 250 259 259 245 242 254 245 250 233 235 237 234 230 230 231 238 240 242 245 244 246 244 239 240 241 235 225 219 221 223 225 224 227
286 283 269 257 257 261 265 271 269 261 254 252 249 253 251 247 250 253 278 246 236 231 229 234 239 239 242 248 243 233 233 241 239 236 233 228 222 220 223 228 228 231 226
295 288 281 269 262 255 259 267 265 254 252 252 250 247 249 247 247 243 255 259 237 229 226 228 232 237 241 240 240 243 246 241 240 238 229 224 226 232 233 233 230 228 225
306 299 289 287 274 259 256 263 260 262 257 253 253 246 245 247 248 249 241 250 245 224 222 216 221 219 225 227 225 231 237 241 246 244 238 231 221 235 234 246 236 225 211
311 304 294 287 283 269 262 264 268 266 261 258 245 250 249 242 250 252 250 262 241 235 218 218 213 208 209 211 220 232 244 230 230 226 216 245 229 228 248 242 217 206 207
307 305 297 290 283 282 275 267 265 265 267 262 240 249 243 237 239 237 238 230 238 243 222 220 214 215 210 209 212 210 213 205 214 222 255 224 234 239 238 244 232 230 223
308 302 298 298 295 287 282 273 267 264 263 264 243 255 233 223 218 224 225 228 246 287 311 236 227 207 203 201 200 202 202 211 220 224 241 237 228 225 245 237 241 233 240
311 311 313 315 308 303 297 288 280 270 262 263 256 257 239 236 217 224 242 255 242 247 274 263 235 223 206 203 206 204 208 210 210 220 226 231 220 222 231 211 218 218 223
308 305 305 303 303 302 302 297 286 264 254 257 257 245 233 232 232 236 241 244 243 231 230 278 257 220 206 204 205 209 213 217 213 213 216 219 222 225 226 230 233 237 242
311 312 312 309 308 306 299 292 298 279 266 256 250 237 231 222 226 225 227 223 220 225 220 236 235 227 209 208 211 213 215 217 217 223 226 228 228 230 235 240 243 244 243
318 320 321 317 307 300 297 296 285 271 261 256 257 249 241 232 219 228 231 233 220 219 215 211 240 237 221 226 219 219 217 220 221 225 234 235 236 238 237 237 241 241 243
356 2 358 345 342 342 325 295 296 270 259 264 263 256 249 244 225 214 226 230 223 218 226 228 238 243 244 231 230 227 227 228 227 233 230 229 227 228 226 228 228 227 233
45 41 41 31 27 21 19 17 355 267 256 257 241 224 227 236 230 215 217 224 227 228 235 234 232 234 238 234 226 222 221 216 218 226 224 224 224 221 222 225 232 234 236
58 57 59 57 58 55 53 51 56 57 67 121 131 136 126 109 124 183 205 210 212 212 215 217 225 232 230 231 223 213 211 211 210 218 206 211 217 227 227 227 232 238 245
56 50 44 45 53 61 64 66 61 63 65 65 69 67 69 73 79 80 94 133 147 151 170 192 199 204 192 181 182 197 200 197 195 190 192 210 218 226 232 235 241 246 251
28 34 40 41 37 35 45 47 51 53 67 81 87 93 94 86 76 83 87 106 108 120 130 134 145 155 148 159 158 178 187 195 210 215 214 228 231 237 237 242 246 247 249
355 1 11 21 22 29 29 36 40 48 50 60 70 79 90 89 88 86 68 60 85 114 123 146 139 130 138 174 194 213 215 220 227 240 234 232 242 241 239 248 254 258 254
Wind_Speed_850mb
49 52 54 54 55 56 58 60 64 68 67 66 68 71 76 77 81 81 86 89 82 76 75 72 71 68 69 67 72 72 74 76 80 80 74 72 66 58 53 52 49 48 49
55 54 53 56 55 55 57 60 62 65 71 69 68 68 79 76 81 87 89 91 87 81 83 79 74 74 75 73 73 74 78 80 84 86 83 81 73 65 59 56 52 53 54
50 52 53 52 54 56 56 59 60 62 67 72 73 68 66 68 71 76 91 92 101 89 88 84 79 78 77 74 74 75 77 82 88 92 91 87 79 70 65 60 57 59 56
47 47 49 51 50 55 57 56 56 57 60 65 70 71 73 75 57 68 79 89 95 93 97 96 91 80 78 75 73 72 72 83 87 97 99 96 85 71 73 64 62 62 61
44 47 49 49 49 52 55 54 53 52 53 55 61 65 70 74 75 62 72 80 98 100 92 104 92 80 76 74 74 75 70 81 88 102 105 97 90 75 68 68 66 65 62
46 46 47 48 46 49 52 53 52 49 48 49 48 56 70 70 75 77 69 61 94 84 87 89 91 96 92 78 76 72 75 73 88 131 106 99 90 77 78 73 71 68 65
45 46 48 46 43 41 43 51 53 51 50 41 45 51 67 68 66 72 81 72 70 85 89 86 84 107 90 91 82 86 78 77 85 91 94 112 81 74 72 71 69 67 66
46 48 47 45 41 35 41 43 47 51 46 37 40 39 44 46 64 66 68 69 67 77 96 80 100 91 84 86 92 85 82 77 83 112 92 74 69 65 68 77 77 73 68
45 46 46 42 38 35 39 41 38 39 44 44 42 46 33 45 38 55 59 65 70 73 80 81 89 96 85 90 100 101 99 91 83 57 73 71 76 61 60 62 72 71 66
44 40 38 39 35 37 42 43 38 39 42 46 43 56 65 46 19 20 44 55 64 70 82 88 83 96 102 100 98 96 105 99 82 83 81 75 78 71 70 68 65 64 65
41 37 35 44 45 46 42 45 46 45 45 49 52 47 50 60 54 46 17 42 61 71 75 82 84 90 88 88 91 85 85 76 77 83 74 73 75 81 84 79 76 70 67
38 37 37 42 49 43 43 45 45 46 47 51 56 55 50 42 42 53 50 47 52 59 64 71 80 83 83 88 94 98 99 85 57 77 86 84 82 66 68 91 97 95 85
39 35 35 37 39 39 45 46 48 45 45 49 53 59 57 49 43 33 43 36 39 50 55 60 64 63 66 68 64 65 58 61 72 55 50 62 50 48 68 68 73 76 90
37 31 29 30 34 40 46 48 44 46 43 45 49 52 52 60 48 50 47 30 47 43 50 47 59 61 58 58 60 58 60 43 59 60 40 31 28 28 24 46 53 70 80
31 29 28 28 32 37 43 51 54 51 48 43 46 50 50 46 45 44 31 40 13 27 50 50 42 63 61 60 56 52 58 46 48 36 45 45 42 38 42 45 54 65 65
29 30 30 33 36 38 43 49 53 55 53 48 45 48 42 27 25 36 18 23 24 13 10 41 55 58 66 64 61 60 64 54 54 61 58 56 61 50 48 67 60 67 49
29 32 33 33 34 36 38 40 44 46 48 43 45 44 47 45 34 37 39 25 28 37 29 30 50 55 67 63 61 57 51 49 52 64 60 62 64 51 52 46 45 35 36
20 26 31 34 37 38 37 37 36 37 40 40 39 45 39 41 42 46 48 44 39 41 29 28 36 51 71 64 58 53 49 48 45 45 48 49 49 49 51 50 47 48 48
26 28 32 36 35 36 36 31 25 27 31 31 29 35 36 34 37 40 41 47 45 42 38 46 35 40 55 61 61 58 55 53 50 49 48 51 49 45 45 46 44 44 43
26 25 23 25 27 25 25 26 20 23 27 27 27 28 31 32 35 38 40 42 46 37 37 35 20 33 39 52 62 62 57 58 56 51 49 45 41 41 43 40 36 34 37
15 18 16 15 15 14 12 12 14 15 19 22 24 24 25 31 34 36 37 42 40 37 36 31 29 53 47 49 62 64 59 52 49 46 45 44 43 41 40 39 36 33 36
21 24 25 24 22 20 19 10 2 4 12 12 12 13 13 15 27 35 44 45 43 35 37 38 41 53 53 53 53 57 53 49 41 44 41 41 38 36 36 36 33 34 35
26 27 28 31 32 32 29 25 23 19 11 9 12 12 18 15 9 16 30 35 39 38 34 30 32 36 35 36 38 44 40 38 34 24 40 35 30 31 32 31 33 36 38
17 19 20 20 22 22 22 24 27 26 29 31 30 28 25 21 21 22 17 15 20 18 16 14 15 16 13 15 20 17 22 26 23 21 25 27 29 32 33 35 38 39 37
12 13 13 14 15 16 18 18 17 15 15 14 15 16 15 14 16 17 16 16 19 17 15 14 14 13 17 18 20 20 24 28 26 25 25 25 24 27 30 34 36 34 34
11 12 12 11 12 12 12 13 12 12 12 12 11 10 9 11 12 9 9 11 9 13 12 10 9 6 7 11 10 14 21 26 23 17 24 27 29 25 16 28 34 36 34
Wind_Direction_850mb
288 285 280 276 273 271 268 264 259 255 255 253 252 250 248 249 245 243 241 241 236 239 243 242 243 239 236 234 231 231 231 230 229 228 228 227 228 230 227 226 221 219 216
287 285 281 278 275 271 269 267 264 261 256 255 253 252 253 250 249 245 243 243 243 242 241 241 241 240 235 235 234 234 234 234 232 229 228 227 227 228 228 225 222 222 218
283 279 280 278 277 274 271 269 268 265 263 257 255 251 249 239 251 248 246 247 246 243 245 239 240 239 237 236 239 239 237 236 235 231 229 227 228 228 229 225 222 222 221
287 281 278 278 276 276 276 273 270 268 265 263 259 256 251 254 252 252 251 247 251 248 244 239 232 233 236 238 240 240 240 236 238 232 231 228 228 226 227 224 224 223 221
287 284 282 279 278 276 274 274 272 270 268 264 263 260 254 249 250 253 249 256 250 252 245 240 227 223 231 235 243 245 248 242 239 235 228 226 225 226 226 227 226 225 223
288 284 281 280 278 276 273 272 272 268 269 267 265 261 257 254 249 247 251 254 248 251 251 250 235 233 221 228 241 244 248 248 240 228 226 223 225 224 227 225 227 226 224
282 282 280 277 274 275 274 272 271 272 269 267 268 267 261 257 254 252 250 251 246 241 243 242 240 231 234 224 232 237 242 243 241 230 236 235 221 221 228 226 223 225 224
281 280 277 275 272 268 270 274 273 273 269 262 253 262 262 261 251 256 254 248 251 250 240 256 241 238 230 240 238 234 242 247 252 237 229 217 224 235 233 230 226 225 225
280 276 275 275 268 268 272 273 273 269 267 266 246 240 251 249 257 249 249 245 237 235 241 239 243 236 240 243 244 251 247 251 245 221 216 231 235 222 225 231 228 226 224
285 280 271 261 260 265 272 277 271 263 250 259 259 245 242 254 245 250 233 235 237 234 230 230 231 238 240 242 245 244 246 244 239 240 241 235 225 219 221 223 225 224 227
286 283 269 257 257 261 265 271 269 261 254 252 249 253 251 247 250 253 278 246 236 231 229 234 239 239 242 248 243 233 233 241 239 236 233 228 222 220 223 228 228 231 226
295 288 281 269 262 255 259 267 265 254 252 252 250 247 249 247 247 243 255 259 237 229 226 228 232 237 241 240 240 243 246 241 240 238 229 224 226 232 233 233 230 228 225
306 299 289 287 274 259 256 263 260 262 257 253 253 246 245 247 248 249 241 250 245 224 222 216 221 219 225 227 225 231 237 241 246 244 238 231 221 235 234 246 236 225 211
311 304 294 287 283 269 262 264 268 266 261 258 245 250 249 242 250 252 250 262 241 235 218 218 213 208 209 211 220 232 244 230 230 226 216 245 229 228 248 242 217 206 207
307 305 297 290 283 282 275 267 265 265 267 262 240 249 243 237 239 237 238 230 238 243 222 220 214 215 210 209 212 210 213 205 214 222 255 224 234 239 238 244 232 230 223
308 302 298 298 295 287 282 273 267 264 263 264 243 255 233 223 218 224 225 228 246 287 311 236 227 207 203 201 200 202 202 211 220 224 241 237 228 225 245 237 241 233 240
311 311 313 315 308 303 297 288 280 270 262 263 256 257 239 236 217 224 242 255 242 247 274 263 235 223 206 203 206 204 208 210 210 220 226 231 220 222 231 211 218 218 223
308 305 305 303 303 302 302 297 286 264 254 257 257 245 233 232 232 236 241 244 243 231 230 278 257 220 206 204 205 209 213 217 213 213 216 219 222 225 226 230 233 237 242
311 312 312 309 308 306 299 292 298 279 266 256 250 237 231 222 226 225 227 223 220 225 220 236 235 227 209 208 211 213 215 217 217 223 226 228 228 230 235 240 243 244 243
318 320 321 317 307 300 297 296 285 271 261 256 257 249 241 232 219 228 231 233 220 219 215 211 240 237 221 226 219 219 217 220 221 225 234 235 236 238 237 237 241 241 243
356 2 358 345 342 342 325 295 296 270 259 264 263 256 249 244 225 214 226 230 223 218 226 228 238 243 244 231 230 227 227 228 227 233 230 229 227 228 226 228 228 227 233
45 41 41 31 27 21 19 17 355 267 256 257 241 224 227 236 230 215 217 224 227 228 235 234 232 234 238 234 226 222 221 216 218 226 224 224 224 221 222 225 232 234 236
58 57 59 57 58 55 53 51 56 57 67 121 131 136 126 109 124 183 205 210 212 212 215 217 225 232 230 231 223 213 211 211 210 218 206 211 217 227 227 227 232 238 245
56 50 44 45 53 61 64 66 61 63 65 65 69 67 69 73 79 80 94 133 147 151 170 192 199 204 192 181 182 197 200 197 195 190 192 210 218 226 232 235 241 246 251
28 34 40 41 37 35 45 47 51 53 67 81 87 93 94 86 76 83 87 106 108 120 130 134 145 155 148 159 158 178 187 195 210 215 214 228 231 237 237 242 246 247 249
355 1 11 21 22 29 29 36 40 48 50 60 70 79 90 89 88 86 68 60 85 114 123 146 139 130 138 174 194 213 215 220 227 240 234 232 242 241 239 248 254 258 254